Pamplona, Spain

11:48 AM CEST on August 27, 2016 (GMT +0200)
Pamplona

Weather History for LEPP - December, 2012

Change the Weather History Date:

Tuesday, December 18, 2012

  Actual Average Record
Temperature  
Mean Temperature 40 °F -  
Max Temperature 48 °F 46 °F 61 °F (2015)
Min Temperature 33 °F 35 °F 19 °F (2001)
Degree Days  
Heating Degree Days 24    
Moisture  
Dew Point 40 °F    
Average Humidity 95    
Maximum Humidity 100    
Minimum Humidity 82    
Precipitation  
Precipitation 0.00 in - - ()
Sea Level Pressure  
Sea Level Pressure 30.18 in    
Wind  
Wind Speed 1 mph ()    
Max Wind Speed 4 mph    
Max Gust Speed -    
Visibility 3.6 miles    
Events Fog , Rain    
Averages and records for this station are not official NWS values.
T = Trace of Precipitation, MM = Missing Value Source: Averaged Metar Reports

Daily Weather History Graph

Daily Weather History Graph

Search for Another Location

Airport or City:

Trip Planner

Search our weather history database for the weather conditions in past years. The results will help you decide how hot, cold, wet, or windy it might be!

Date:

Astronomy

Dec. 18, 2012 Rise Set
Actual Time 8:32 AM CET 5:34 PM CET
Civil Twilight 8:00 AM CET 6:06 PM CET
Nautical Twilight 7:24 AM CET 6:42 PM CET
Astronomical Twilight 6:49 AM CET 7:16 PM CET
Moon 11:57 AM CET (12/18) 11:52 PM CET (12/18)
Length of Visible Light 10h 06m
Length of Day
9h 02m
Waxing Crescent, 32% of the Moon is Illuminated
Dec 18
Waxing Crescent
Dec 20
First Quarter
Dec 28
Full
Jan 5
Last Quarter
Jan 11
New

Hourly Weather History & Observations

Time (CET) Temp. Windchill Dew Point Humidity Pressure Visibility Wind Dir Wind Speed Gust Speed Precip Events Conditions
5:30 AM 35.6 °F - 35.6 °F 100% 30.21 in 5.0 mi South 2.3 mph - N/A   Unknown
6:00 AM 33.8 °F - 33.8 °F 100% 30.21 in 4.3 mi Calm Calm - N/A   Unknown
6:30 AM 33.8 °F - 33.8 °F 100% 30.21 in 5.0 mi SSE 2.3 mph - N/A   Unknown
7:00 AM 35.6 °F 32.8 °F 35.6 °F 100% 30.21 in 5.0 mi SE 3.5 mph - N/A   Unknown
7:30 AM 33.8 °F - 33.8 °F 100% 30.21 in 3.7 mi Calm Calm - N/A   Unknown
8:00 AM 33.8 °F - 33.8 °F 100% 30.21 in 3.7 mi Calm Calm - N/A   Unknown
8:30 AM 33.8 °F - 33.8 °F 100% 30.21 in 3.7 mi East 2.3 mph - N/A   Partly Cloudy
9:00 AM 33.8 °F - 33.8 °F 100% 30.21 in 0.4 mi Calm Calm - N/A Fog Fog
9:03 AM 33.8 °F - 33.8 °F 100% 30.21 in 0.1 mi Calm Calm - N/A Fog Fog
9:15 AM 33.8 °F - 33.8 °F 100% 30.21 in 0.0 mi Calm Calm - N/A Fog Fog
9:30 AM 33.8 °F - 33.8 °F 100% 30.21 in 0.0 mi Calm Calm - N/A Fog Fog
10:00 AM 35.6 °F - 35.6 °F 100% 30.21 in 0.0 mi Calm Calm - N/A Fog Fog
10:16 AM 35.6 °F - 35.6 °F 100% 30.21 in 0.1 mi Calm Calm - N/A Fog Fog
10:30 AM 37.4 °F - 37.4 °F 100% 30.21 in 0.2 mi Calm Calm - N/A Fog Fog
10:41 AM 37.4 °F - 37.4 °F 100% 30.21 in 0.3 mi Calm Calm - N/A Fog Fog
10:46 AM 37.4 °F - 37.4 °F 100% 30.21 in 0.5 mi Calm Calm - N/A Fog Fog
11:00 AM 37.4 °F - 37.4 °F 100% 30.21 in 0.6 mi Calm Calm - N/A   Scattered Clouds
11:06 AM 39.2 °F - 39.2 °F 100% 30.21 in 0.9 mi Calm Calm - N/A   Mostly Cloudy
11:30 AM 39.2 °F - 39.2 °F 100% 30.24 in 3.1 mi Calm Calm - N/A   Mostly Cloudy
12:00 PM 41.0 °F - 41.0 °F 100% 30.21 in 3.7 mi Calm Calm - N/A   Scattered Clouds
12:30 PM 42.8 °F - 42.8 °F 100% 30.21 in 5.0 mi Calm Calm - N/A   Partly Cloudy
1:00 PM 44.6 °F - 42.8 °F 93% 30.18 in 5.6 mi Calm Calm - N/A   Partly Cloudy
1:30 PM 44.6 °F - 42.8 °F 93% 30.18 in 5.6 mi Variable 1.2 mph - N/A   Scattered Clouds
2:00 PM 46.4 °F - 42.8 °F 87% 30.15 in 5.6 mi Calm Calm - N/A   Scattered Clouds
2:30 PM 48.2 °F - 42.8 °F 82% 30.15 in 5.6 mi Calm Calm - N/A   Partly Cloudy
3:00 PM 48.2 °F - 44.6 °F 87% 30.15 in 5.6 mi Variable 1.2 mph - N/A   Partly Cloudy
3:30 PM 48.2 °F - 44.6 °F 87% 30.12 in 5.6 mi Variable 1.2 mph - N/A   Partly Cloudy
4:00 PM 48.2 °F - 44.6 °F 87% 30.15 in 5.0 mi Variable 1.2 mph - N/A   Partly Cloudy
4:30 PM 48.2 °F - 44.6 °F 87% 30.15 in 5.6 mi Calm Calm - N/A   Scattered Clouds
5:00 PM 48.2 °F - 42.8 °F 82% 30.15 in 6.2 mi Calm Calm - N/A   Scattered Clouds
5:30 PM 46.4 °F - 44.6 °F 93% 30.12 in 5.6 mi NNE 1.2 mph - N/A   Scattered Clouds
6:00 PM 46.4 °F - 44.6 °F 93% 30.15 in 5.6 mi Calm Calm - N/A   Scattered Clouds
6:30 PM 46.4 °F - 44.6 °F 93% 30.15 in 5.6 mi Calm Calm - N/A   Scattered Clouds
7:00 PM 46.4 °F - 44.6 °F 93% 30.15 in 5.6 mi Variable 1.2 mph - N/A   Scattered Clouds
7:30 PM 46.4 °F - 44.6 °F 93% 30.15 in 5.6 mi Calm Calm - N/A   Scattered Clouds
8:00 PM 46.4 °F - 44.6 °F 93% 30.15 in 5.6 mi Calm Calm - N/A   Mostly Cloudy
8:30 PM 46.4 °F - 44.6 °F 93% 30.15 in 4.3 mi WSW 1.2 mph - N/A Rain Light Rain
9:00 PM 46.4 °F - 44.6 °F 93% 30.15 in 4.3 mi Calm Calm - N/A Rain Light Rain
9:30 PM 46.4 °F - 44.6 °F 93% 30.15 in 3.7 mi Variable 1.2 mph - N/A Rain Light Rain
10:00 PM 44.6 °F - 44.6 °F 100% 30.15 in 3.7 mi East 2.3 mph - N/A Rain Light Rain
10:30 PM 46.4 °F - 44.6 °F 93% 30.15 in 3.1 mi Calm Calm - N/A   Mostly Cloudy
11:00 PM 46.4 °F - 44.6 °F 93% 30.15 in 2.5 mi West 1.2 mph - N/A   Mostly Cloudy
11:30 PM 46.4 °F - 44.6 °F 93% 30.15 in 3.7 mi Calm Calm - N/A   Mostly Cloudy